Wind_Speed
42 41 42 42 41 41 42 42 42 41 40 38 37 37 37 37 37 36 36 36 37 36 37 37 38 38 38 39 40 42 42 42 42 42 43 44 44 45 45 45 46 46 47 47
40 41 42 43 43 42 42 41 42 41 41 41 39 39 38 38 38 38 38 38 38 38 39 39 39 39 39 40 40 41 42 43 43 43 44 45 46 47 47 47 48 48 48 49
38 38 40 42 41 42 42 41 41 42 41 41 41 39 38 38 38 39 40 40 40 40 41 41 41 41 41 42 42 42 43 43 44 45 45 46 47 48 48 48 48 49 49 50
37 36 39 39 38 39 40 41 41 42 42 42 42 41 41 41 40 40 41 41 41 42 42 42 42 42 43 43 43 43 44 44 45 45 46 46 47 48 48 49 49 49 49 50
34 35 36 36 37 38 39 39 39 40 42 43 43 42 42 41 42 42 42 42 41 42 42 43 43 43 44 44 45 45 45 45 45 46 46 47 48 49 50 50 50 50 50 50
31 31 30 31 31 33 36 37 35 36 38 39 41 42 41 41 41 42 42 42 42 42 42 43 43 43 43 44 45 45 46 46 47 47 48 48 49 50 50 50 50 50 50 50
29 30 29 29 28 30 33 34 34 34 34 36 38 39 39 40 40 40 41 41 41 42 42 43 43 44 44 44 44 45 46 47 48 48 48 49 49 49 49 49 49 49 50 50
27 29 29 29 29 29 30 31 32 32 32 33 34 35 36 37 38 38 39 39 40 41 41 41 42 43 44 44 45 45 46 47 47 48 48 48 48 48 48 49 49 50 50 50
25 27 28 28 28 29 29 30 30 30 31 32 32 34 35 36 37 37 37 37 38 39 39 40 41 42 44 44 44 44 45 45 46 46 46 46 46 47 47 48 49 50 50 51
24 25 25 26 26 27 28 29 30 30 30 31 31 32 33 34 34 35 35 35 36 37 39 40 41 42 43 44 44 43 43 44 44 45 45 45 45 46 47 47 48 48 50 51
24 24 24 24 24 25 27 28 28 29 30 30 30 30 30 30 31 32 33 34 35 36 38 39 40 40 41 41 42 43 43 43 44 44 44 44 45 45 46 46 47 48 49 50
22 22 23 23 23 23 24 26 26 27 28 29 29 30 30 30 31 31 32 33 35 36 37 38 38 39 40 41 42 42 42 43 43 43 43 44 44 45 45 46 47 48 48 49
19 20 21 21 22 22 22 23 24 25 26 27 29 30 31 31 31 32 33 34 35 36 37 38 38 39 40 41 41 42 41 42 42 42 43 43 44 45 45 46 46 47 48 48
19 19 19 20 21 21 21 22 23 24 25 26 27 29 30 31 32 32 33 34 34 35 36 37 37 38 39 39 40 41 41 42 42 43 43 44 44 44 45 45 45 45 46 46
20 19 20 21 22 22 22 23 24 24 25 26 26 27 29 29 31 32 32 33 34 35 35 36 37 37 38 39 40 40 41 41 42 43 43 44 44 44 44 44 45 44 44 43
21 20 20 20 21 22 23 23 24 25 26 27 27 28 29 30 31 32 32 33 34 34 35 36 36 37 37 38 38 39 40 41 42 42 42 42 43 43 43 43 43 42 41 40
21 21 20 21 21 22 22 23 24 25 26 26 28 29 29 30 31 32 33 34 34 35 35 36 36 36 37 37 38 38 39 40 41 41 41 41 41 42 42 41 40 39 38 38
20 21 21 21 22 22 22 23 24 25 26 28 29 29 30 30 32 32 33 34 34 35 35 36 36 37 37 37 38 38 39 39 40 40 40 41 40 40 39 39 37 36 36 36
21 22 22 22 23 23 23 24 25 25 26 27 29 30 30 31 32 33 33 34 34 35 35 36 36 36 37 37 38 38 39 39 39 39 39 39 39 38 37 37 36 35 34 34
22 23 23 24 24 25 25 25 26 27 27 28 29 30 31 32 32 33 33 34 34 34 35 35 36 36 37 37 38 38 38 38 38 38 38 38 37 36 35 34 34 33 33 32
25 25 26 26 27 27 27 27 28 28 29 29 30 30 31 31 31 32 32 32 33 34 34 34 35 35 36 36 37 37 37 37 37 37 36 36 35 34 33 33 32 31 31 31
25 26 27 28 28 28 28 28 28 28 29 29 29 29 29 29 29 30 31 31 32 32 33 33 33 33 33 34 34 34 34 34 34 34 34 33 33 32 31 31 31 30 30 30
25 26 26 27 27 28 28 28 28 29 29 29 29 29 28 28 29 29 29 30 30 30 30 31 31 31 31 31 31 31 31 31 31 31 31 31 31 31 30 30 29 29 29 29
25 25 26 26 27 27 27 27 27 28 28 28 28 28 28 28 28 29 29 29 29 29 29 29 29 29 29 29 29 29 29 29 29 29 29 28 28 28 28 28 28 28 27 27
23 23 24 25 25 26 27 27 27 27 27 27 27 27 27 27 28 28 29 29 28 28 28 28 28 27 27 27 27 27 27 27 27 27 27 26 26 26 26 26 26 25 25 24
21 22 22 23 24 25 26 26 27 27 27 27 27 28 28 28 28 28 28 28 27 27 26 26 26 26 26 25 25 25 26 26 25 25 24 24 24 24 23 23 23 23 22 22
22 22 23 24 25 25 26 26 26 27 27 27 27 27 27 27 27 27 26 26 26 25 25 24 24 24 24 24 24 24 23 23 22 22 22 21 22 22 22 22 22 22 21 21
Wind_Direction
243 243 243 244 244 244 244 246 249 249 248 248 250 251 250 249 248 249 249 249 249 249 249 250 251 250 250 250 251 252 254 255 257 258 261 262 262 264 266 267 268 268 268 268
243 244 245 244 244 244 244 246 247 248 248 247 248 249 249 250 250 249 249 249 249 249 249 250 251 251 251 252 253 254 256 257 258 260 261 262 263 265 267 268 269 269 271 271
243 243 245 245 244 245 244 244 246 247 247 246 247 248 249 250 250 250 249 249 250 251 251 250 251 252 252 253 254 255 257 259 260 262 263 264 265 267 268 269 270 272 273 273
245 244 246 246 245 245 246 246 246 246 245 246 248 248 249 250 250 249 249 250 251 251 252 252 252 253 253 254 255 257 258 260 262 263 264 265 267 269 270 271 272 273 274 274
245 247 248 248 246 247 248 246 245 246 246 247 247 248 249 250 249 249 248 249 249 251 252 253 254 255 256 256 257 259 260 262 264 265 266 267 268 270 271 271 272 273 274 274
242 245 248 247 247 247 248 247 245 246 247 248 249 249 249 250 249 249 249 249 250 251 252 253 255 256 257 258 259 260 262 264 266 267 268 269 270 271 272 272 272 273 274 275
242 245 247 247 246 248 249 248 246 247 248 248 249 250 249 249 250 250 251 251 251 251 252 253 254 255 256 258 260 262 264 265 267 268 269 270 271 272 272 272 273 273 274 275
242 245 248 248 249 249 250 248 247 248 248 249 248 249 249 249 250 252 253 254 253 253 253 254 255 255 257 259 262 264 266 267 268 269 269 270 271 272 273 273 273 274 275 275
248 248 250 253 254 251 249 250 249 249 248 249 249 248 247 249 250 252 253 254 254 254 254 255 256 258 258 260 262 264 266 267 268 268 269 269 271 272 273 274 274 275 275 276
247 248 250 252 253 251 250 250 249 249 248 248 249 249 249 249 250 251 253 254 254 254 255 255 256 257 260 261 262 264 265 265 266 266 268 269 271 272 274 275 275 276 276 277
247 248 249 250 251 249 249 249 250 249 249 249 249 249 250 252 252 252 253 254 254 254 255 256 257 259 261 261 262 263 264 265 265 267 269 270 272 274 275 276 276 278 278 279
249 249 250 251 252 251 249 248 249 249 248 248 249 250 250 251 253 255 255 256 255 256 257 258 259 260 261 262 263 263 264 265 266 268 270 272 273 275 277 278 278 279 280 280
249 251 251 249 250 251 251 249 249 249 248 248 249 250 250 251 253 256 257 257 257 257 258 259 261 262 262 263 264 264 265 267 268 270 271 273 275 277 278 278 279 279 280 281
248 250 250 249 249 251 251 252 252 252 250 250 250 251 252 253 254 257 258 258 259 259 259 261 262 263 263 263 264 265 266 267 269 270 272 274 276 277 279 280 279 280 281 282
248 249 251 252 252 253 253 253 254 254 253 253 255 256 256 257 258 260 261 261 262 262 263 264 265 265 265 265 266 267 268 269 270 272 273 275 276 278 279 280 281 281 280 280
247 248 250 251 254 255 255 255 256 256 256 257 258 260 261 261 262 263 263 264 265 265 266 267 268 267 267 267 267 268 269 270 271 272 273 274 276 277 279 280 281 281 280 279
249 250 251 252 254 256 257 257 257 258 260 261 262 263 263 264 265 266 267 267 268 268 269 270 269 269 270 269 269 270 271 272 272 273 274 275 276 277 278 279 280 280 280 280
251 253 255 255 256 258 260 262 262 263 263 263 265 266 266 267 269 270 269 270 271 271 271 271 270 269 270 271 271 271 272 273 273 274 275 276 277 278 278 278 278 279 280 281
252 254 257 259 260 262 264 265 266 267 268 268 268 269 269 270 271 272 272 272 272 272 272 272 271 271 272 272 272 273 274 274 275 275 276 277 277 277 277 277 277 278 279 280
257 259 260 262 264 266 267 267 268 269 271 272 273 273 272 272 272 273 273 274 274 273 273 273 273 273 274 273 273 274 274 275 276 276 276 277 276 276 276 275 276 277 277 278
261 262 263 265 267 268 269 270 271 271 272 274 275 276 275 274 275 275 275 275 274 274 274 274 275 275 274 274 274 274 275 275 275 275 276 276 275 274 273 273 274 275 276 278
266 268 268 269 269 269 270 271 272 273 274 275 277 278 277 277 277 277 277 277 276 275 274 275 275 275 275 274 274 275 275 275 276 276 276 275 274 273 272 273 274 276 277 278
269 270 270 270 270 270 270 271 273 275 275 276 277 278 278 278 279 279 280 279 278 276 275 275 276 276 275 275 275 275 275 275 275 275 275 274 273 272 272 272 273 276 278 279
270 270 271 271 271 271 271 272 273 275 276 276 276 277 277 279 279 280 281 280 280 279 278 278 277 276 276 276 276 275 274 274 275 275 275 274 273 272 272 272 273 276 277 277
272 272 273 273 273 272 272 273 274 275 275 275 275 276 277 278 279 280 280 281 280 279 277 277 276 276 275 275 274 274 275 275 276 276 275 274 274 273 273 274 275 275 276 276
273 274 275 276 276 275 274 274 275 275 275 275 275 275 276 278 279 280 280 280 279 278 277 277 277 277 276 275 274 274 276 276 276 277 276 276 274 274 274 275 275 275 275 275
275 276 277 278 279 279 277 276 276 276 276 276 277 277 277 277 278 278 278 278 277 277 277 276 276 277 276 275 275 275 276 276 277 276 276 276 274 273 273 273 273 274 274 274
Height
5546 5551 5555 5559 5565 5569 5572 5576 5581 5587 5591 5595 5597 5600 5603 5607 5610 5614 5617 5620 5622 5625 5627 5630 5633 5636 5638 5641 5643 5646 5648 5649 5651 5652 5653 5653 5654 5654 5655 5655 5655 5655 5654 5653
5536 5541 5543 5547 5553 5558 5563 5567 5571 5575 5580 5585 5587 5590 5593 5597 5601 5604 5608 5610 5613 5615 5618 5621 5624 5626 5629 5631 5633 5635 5637 5639 5640 5641 5642 5642 5643 5643 5643 5643 5643 5642 5641 5641
5526 5531 5532 5536 5544 5548 5553 5557 5561 5564 5570 5573 5576 5580 5584 5587 5591 5594 5597 5600 5603 5606 5608 5611 5613 5616 5618 5620 5622 5624 5626 5628 5629 5629 5630 5630 5631 5631 5631 5630 5630 5629 5628 5627
5516 5521 5522 5531 5535 5538 5542 5546 5550 5553 5558 5562 5565 5569 5572 5576 5580 5583 5586 5589 5592 5595 5597 5600 5602 5605 5607 5609 5611 5613 5614 5616 5617 5617 5618 5618 5618 5618 5617 5617 5616 5615 5614 5613
5508 5510 5513 5521 5525 5528 5531 5535 5540 5543 5546 5550 5554 5557 5561 5565 5568 5572 5575 5578 5581 5584 5586 5589 5591 5593 5595 5597 5599 5601 5603 5604 5604 5605 5605 5605 5605 5604 5604 5603 5602 5601 5600 5599
5501 5503 5506 5513 5516 5518 5522 5525 5530 5532 5536 5539 5543 5547 5552 5554 5557 5561 5564 5567 5570 5573 5575 5578 5580 5582 5584 5585 5587 5589 5590 5591 5591 5592 5592 5592 5591 5590 5590 5589 5588 5587 5587 5585
5493 5496 5499 5504 5507 5510 5514 5518 5521 5523 5526 5530 5533 5537 5541 5543 5546 5549 5553 5556 5559 5561 5564 5566 5568 5570 5572 5573 5575 5576 5577 5578 5578 5579 5578 5578 5577 5577 5576 5575 5574 5573 5572 5571
5487 5489 5495 5496 5499 5502 5505 5508 5511 5514 5517 5520 5523 5526 5529 5532 5535 5538 5541 5544 5547 5550 5552 5554 5556 5558 5560 5561 5563 5564 5565 5565 5565 5565 5565 5564 5564 5563 5562 5561 5560 5559 5558 5557
5481 5485 5486 5488 5491 5493 5496 5499 5502 5505 5508 5511 5514 5516 5519 5522 5525 5528 5531 5533 5535 5538 5540 5542 5544 5546 5548 5549 5550 5551 5551 5552 5552 5552 5552 5551 5550 5550 5549 5547 5546 5544 5544 5543
5474 5477 5479 5481 5483 5485 5488 5491 5494 5497 5500 5502 5505 5508 5510 5513 5515 5518 5520 5522 5524 5527 5529 5531 5533 5534 5535 5536 5537 5538 5538 5539 5539 5539 5539 5538 5537 5536 5535 5533 5532 5530 5529 5528
5468 5470 5472 5475 5476 5478 5481 5483 5486 5488 5491 5494 5497 5499 5502 5504 5506 5508 5510 5512 5514 5515 5517 5519 5521 5522 5523 5524 5524 5525 5526 5526 5526 5526 5525 5525 5524 5523 5521 5520 5518 5516 5514 5513
5462 5464 5466 5468 5470 5472 5474 5476 5478 5481 5483 5485 5488 5491 5493 5495 5497 5499 5500 5502 5503 5504 5506 5507 5508 5510 5511 5511 5512 5513 5513 5513 5513 5513 5513 5512 5511 5510 5508 5506 5504 5502 5499 5498
5456 5457 5460 5462 5464 5466 5468 5470 5471 5473 5475 5478 5480 5482 5484 5486 5488 5489 5490 5491 5492 5494 5495 5496 5497 5498 5499 5499 5500 5500 5501 5501 5501 5500 5500 5499 5498 5497 5496 5494 5491 5489 5486 5484
5451 5452 5454 5456 5458 5459 5461 5463 5465 5466 5468 5470 5471 5473 5475 5476 5478 5479 5480 5481 5482 5483 5484 5485 5486 5486 5487 5487 5487 5488 5488 5488 5488 5488 5487 5486 5485 5483 5482 5480 5479 5477 5474 5470
5446 5447 5449 5450 5451 5453 5455 5456 5458 5459 5461 5462 5464 5465 5466 5467 5469 5470 5470 5471 5472 5473 5473 5474 5474 5475 5475 5475 5475 5476 5476 5476 5475 5475 5474 5473 5472 5471 5469 5467 5466 5464 5461 5459
5440 5441 5443 5444 5446 5447 5448 5449 5451 5452 5453 5455 5456 5457 5458 5459 5460 5460 5461 5461 5462 5462 5463 5463 5463 5463 5463 5463 5463 5464 5464 5463 5463 5462 5461 5460 5459 5458 5456 5455 5453 5451 5449 5447
5434 5436 5438 5439 5440 5441 5441 5442 5443 5444 5446 5447 5448 5448 5449 5450 5450 5451 5451 5451 5451 5452 5452 5452 5452 5452 5452 5452 5452 5452 5451 5451 5450 5450 5449 5448 5446 5445 5444 5442 5440 5439 5437 5435
5429 5430 5431 5432 5433 5434 5435 5435 5436 5437 5438 5438 5439 5439 5440 5440 5440 5440 5440 5440 5440 5441 5440 5440 5440 5441 5440 5440 5440 5440 5439 5439 5438 5437 5436 5435 5434 5433 5431 5430 5429 5427 5426 5424
5423 5424 5425 5426 5427 5427 5428 5428 5429 5429 5429 5430 5430 5430 5430 5430 5430 5430 5430 5430 5430 5429 5429 5429 5429 5429 5429 5428 5428 5428 5427 5427 5426 5425 5424 5423 5422 5421 5420 5419 5418 5416 5415 5414
5418 5418 5419 5419 5420 5420 5420 5421 5421 5421 5421 5421 5421 5421 5421 5420 5420 5420 5419 5419 5418 5418 5418 5418 5418 5417 5417 5417 5416 5416 5416 5415 5414 5413 5412 5411 5410 5409 5409 5408 5407 5406 5405 5404
5411 5411 5412 5412 5412 5412 5413 5413 5413 5413 5413 5412 5412 5411 5411 5410 5410 5409 5409 5409 5408 5407 5407 5407 5406 5406 5406 5405 5405 5405 5404 5403 5403 5402 5401 5400 5399 5398 5398 5397 5397 5396 5395 5394
5403 5403 5404 5404 5404 5404 5404 5404 5404 5404 5404 5403 5402 5401 5401 5400 5400 5399 5398 5398 5398 5397 5397 5396 5396 5395 5395 5394 5394 5393 5393 5392 5391 5391 5390 5389 5388 5388 5387 5387 5387 5386 5385 5384
5395 5395 5395 5395 5395 5395 5395 5395 5395 5395 5394 5394 5393 5393 5392 5391 5391 5390 5389 5388 5387 5387 5387 5386 5386 5385 5385 5384 5384 5383 5383 5382 5381 5381 5380 5379 5378 5378 5377 5377 5377 5376 5376 5375
5388 5387 5387 5387 5387 5387 5387 5386 5386 5386 5385 5385 5384 5384 5383 5383 5382 5381 5380 5379 5378 5378 5377 5376 5376 5375 5375 5374 5374 5373 5373 5372 5372 5371 5370 5369 5369 5368 5368 5368 5368 5367 5367 5366
5380 5380 5379 5379 5378 5378 5378 5378 5377 5377 5376 5376 5375 5375 5374 5374 5373 5372 5371 5370 5369 5368 5367 5367 5366 5366 5365 5365 5364 5364 5363 5363 5362 5362 5361 5360 5360 5360 5360 5360 5359 5359 5358 5358
5373 5373 5372 5371 5370 5370 5369 5369 5368 5368 5368 5367 5367 5366 5365 5365 5364 5363 5362 5361 5360 5359 5358 5358 5357 5357 5356 5356 5355 5355 5354 5354 5353 5353 5352 5352 5352 5352 5352 5351 5351 5351 5351 5350
5366 5366 5365 5364 5363 5362 5361 5360 5360 5359 5359 5358 5358 5357 5356 5356 5355 5354 5353 5352 5351 5351 5350 5349 5349 5348 5348 5348 5347 5347 5346 5346 5345 5345 5345 5344 5344 5344 5344 5344 5344 5343 5343 5343